Location: Temple Hill
(37.3073°N, 88.6303°W)
Time: 17:08:51
(UTC+00:00)

COSMO-SKYMED 1 - Pass Details

Date: 23 November 2020
Orbit: 621 x 623 km, 97.9° (Epoch: 20 January)

Event Time Altitude Azimuth Distance (km) Brightness Sun altitude
Rises 23:03:48 0° 29° (NNE) 2,910 5.5 -5.3°
Reaches altitude 10° 23:06:29 10° 45° (NE) 1,998 4.6 -5.8°
Maximum altitude 23:09:46 21° 95° (E) 1,410 3.9 -6.4°
Drops below altitude 10° 23:13:03 10° 144° (SE) 1,986 5.0 -7.0°
Sets 23:15:40 0° 161° (SSE) 2,887 6.0 -7.5°
